Location: Boston
(42.3580°N, 71.0600°W)
Time: 23:35:59
(UTC-04:00)

Tiangong 2 - Pass Details

Date: 07 October 2017
Orbit: 388 x 392 km, 42.8° (Epoch: 19 October)

Event Time Altitude Azimuth Distance (km) Brightness Sun altitude
Exits shadow 05:13:04 - 178° (S) 1,634 4.2 -18.3°
Reaches altitude 10° 05:14:24 10° 157° (SSE) 1,416 4.1 -18.1°
Maximum altitude 05:15:08 11° 144° (SE) 1,382 4.2 -18.0°
Drops below altitude 10° 05:15:53 10° 130° (SE) 1,418 4.5 -17.8°
Sets 05:19:24 0° 90° (E) 2,279 6.7 -17.2°
